| time (UTC) | temp C | wind direction | speed KPH | gust KPH | rain 1hr cm | rain 24hr cm | rain mn cm | humidity % | barometer mb |
| 20260504021521 | 10 | 180 | 4.8 | 6.4 | 0.00 | 0.00 | 0.00 | 51 | 1014.3 |
| 20260504020522 | 10 | 180 | 3.2 | 4.8 | 0.00 | 0.00 | 0.00 | 51 | 1014.1 |
| 20260504014522 | 10 | 180 | 3.2 | 3.2 | 0.00 | 0.00 | 0.00 | 48 | 1013.9 |
| 20260504013621 | 10 | 166 | 3.2 | 3.2 | 0.00 | 0.00 | 0.00 | 48 | 1014.0 |
| 20260504012622 | 11 | 180 | 3.2 | 4.8 | 0.00 | 0.00 | 0.00 | 47 | 1013.7 |
| 20260504011639 | 11 | 180 | 3.2 | 4.8 | 0.00 | 0.00 | 0.00 | 46 | 1013.8 |
| 20260504010722 | 11 | 180 | 1.6 | 3.2 | 0.00 | 0.00 | 0.00 | 44 | 1013.8 |
| 20260504005722 | 11 | 180 | 3.2 | 3.2 | 0.00 | 0.00 | 0.00 | 43 | 1013.7 |
| 20260504004821 | 12 | 262 | 0.0 | 3.2 | 0.00 | 0.00 | 0.00 | 42 | 1013.8 |
| 20260504003821 | 12 | 192 | 3.2 | 4.8 | 0.00 | 0.00 | 0.00 | 41 | 1013.8 |
| 20260504002825 | 12 | 193 | 3.2 | 6.4 | 0.00 | 0.00 | 0.00 | 39 | 1013.7 |
| 20260504001922 | 13 | 182 | 6.4 | 9.7 | 0.00 | 0.00 | 0.00 | 39 | 1013.9 |
| 20260504001021 | 13 | 220 | 4.8 | 9.7 | 0.00 | 0.00 | 0.00 | 39 | 1013.8 |
| 20260504000025 | 13 | 195 | 6.4 | 9.7 | 0.00 | 0.00 | 0.00 | 39 | 1013.8 |
| 20260503235121 | 13 | 186 | 3.2 | 6.4 | 0.00 | 0.00 | 0.00 | 39 | 1013.9 |
| 20260503234123 | 13 | 232 | 1.6 | 6.4 | 0.00 | 0.00 | 0.00 | 38 | 1014.0 |
| 20260503232221 | 13 | 212 | 6.4 | 14.5 | 0.00 | 0.00 | 0.00 | 37 | 1014.1 |
| 20260503231222 | 13 | 213 | 4.8 | 14.5 | 0.00 | 0.00 | 0.00 | 37 | 1014.1 |
| 20260503230224 | 13 | 156 | 6.4 | 11.3 | 0.00 | 0.00 | 0.00 | 37 | 1014.1 |
| 20260503225222 | 13 | 243 | 4.8 | 9.7 | 0.00 | 0.00 | 0.00 | 37 | 1014.1 |
| 20260503223222 | 13 | 198 | 6.4 | 9.7 | 0.00 | 0.00 | 0.00 | 36 | 1014.3 |
| 20260503222223 | 14 | 194 | 8.0 | 14.5 | 0.00 | 0.00 | 0.00 | 36 | 1014.2 |
| 20260503221221 | 14 | 235 | 4.8 | 12.9 | 0.00 | 0.00 | 0.00 | 36 | 1014.3 |
| 20260503220222 | 14 | 227 | 9.7 | 16.1 | 0.00 | 0.00 | 0.00 | 36 | 1014.4 |
| 20260503215123 | 14 | 211 | 4.8 | 11.3 | 0.00 | 0.00 | 0.00 | 35 | 1014.2 |
| 20260503214220 | 15 | 171 | 8.0 | 17.7 | 0.00 | 0.00 | 0.00 | 36 | 1014.3 |
| 20260503213222 | 14 | 194 | 1.6 | 8.0 | 0.00 | 0.00 | 0.00 | 36 | 1014.3 |
| 20260503212221 | 15 | 178 | 9.7 | 17.7 | 0.00 | 0.00 | 0.00 | 35 | 1014.2 |
| 20260503210322 | 14 | 190 | 11.3 | 20.9 | 0.00 | 0.00 | 0.00 | 36 | 1014.2 |
| 20260503205324 | 14 | 205 | 8.0 | 12.9 | 0.00 | 0.00 | 0.00 | 36 | 1014.2 |
| 20260503204422 | 14 | 208 | 8.0 | 11.3 | 0.00 | 0.00 | 0.00 | 36 | 1014.3 |
| 20260503203422 | 14 | 208 | 11.3 | 30.6 | 0.00 | 0.00 | 0.00 | 35 | 1014.3 |
| 20260503202521 | 14 | 242 | 8.0 | 12.9 | 0.00 | 0.00 | 0.00 | 35 | 1014.6 |
| 20260503201539 | 15 | 256 | 9.7 | 20.9 | 0.00 | 0.00 | 0.00 | 35 | 1014.6 |
| 20260503200621 | 14 | 175 | 4.8 | 9.7 | 0.00 | 0.00 | 0.00 | 34 | 1014.8 |
| 20260503195621 | 15 | 201 | 9.7 | 17.7 | 0.00 | 0.00 | 0.00 | 34 | 1014.9 |
| 20260503194623 | 15 | 216 | 4.8 | 11.3 | 0.00 | 0.00 | 0.00 | 33 | 1015.0 |
| 20260503193622 | 15 | 207 | 8.0 | 12.9 | 0.00 | 0.00 | 0.00 | 33 | 1015.1 |
| 20260503192623 | 15 | 216 | 8.0 | 16.1 | 0.00 | 0.00 | 0.00 | 34 | 1015.4 |
| 20260503185723 | 14 | 181 | 6.4 | 12.9 | 0.00 | 0.00 | 0.00 | 34 | 1015.6 |
| 20260503184721 | 14 | 192 | 8.0 | 17.7 | 0.00 | 0.00 | 0.00 | 34 | 1015.7 |
| 20260503184622 | 14 | 191 | 4.8 | 17.7 | 0.00 | 0.00 | 0.00 | 34 | 1015.8 |
| 20260503183623 | 15 | 204 | 1.6 | 11.3 | 0.00 | 0.00 | 0.00 | 34 | 1015.9 |
| 20260503182622 | 15 | 308 | 1.6 | 6.4 | 0.00 | 0.00 | 0.00 | 34 | 1015.9 |
| 20260503181622 | 14 | 209 | 1.6 | 6.4 | 0.00 | 0.00 | 0.00 | 35 | 1016.1 |
| 20260503180721 | 15 | 199 | 9.7 | 16.1 | 0.00 | 0.00 | 0.00 | 35 | 1016.2 |
| 20260503175721 | 15 | 251 | 8.0 | 12.9 | 0.00 | 0.00 | 0.00 | 35 | 1016.3 |
| 20260503174721 | 14 | 288 | 6.4 | 12.9 | 0.00 | 0.00 | 0.00 | 34 | 1016.4 |
| 20260503173723 | 14 | 264 | 9.7 | 17.7 | 0.00 | 0.00 | 0.00 | 35 | 1016.4 |
| 20260503172722 | 14 | 249 | 4.8 | 11.3 | 0.00 | 0.00 | 0.00 | 36 | 1016.5 |
| 20260503171722 | 13 | 250 | 6.4 | 12.9 | 0.00 | 0.00 | 0.00 | 37 | 1016.7 |
| 20260503171622 | 13 | 259 | 4.8 | 9.7 | 0.00 | 0.00 | 0.00 | 37 | 1016.7 |
| 20260503170623 | 13 | 180 | 8.0 | 12.9 | 0.00 | 0.00 | 0.00 | 39 | 1016.8 |
| 20260503150121 | 10 | 182 | 8.0 | 17.7 | 0.00 | 0.00 | 0.00 | 41 | 1017.9 |
| 20260503131222 | 7 | 227 | 3.2 | 8.0 | 0.00 | 0.00 | 0.00 | 49 | 1018.5 |
| 20260503130123 | 6 | 165 | 1.6 | 3.2 | 0.00 | 0.00 | 0.00 | 52 | 1018.3 |
| 20260503120124 | 3 | 205 | 8.0 | 16.1 | 0.00 | 0.00 | 0.00 | 66 | 1017.9 |
| 20260503100224 | 1 | 180 | 3.2 | 4.8 | 0.00 | 0.00 | 0.00 | 77 | 1016.6 |
| 20260503081522 | 1 | 180 | 3.2 | 4.8 | 0.00 | 0.13 | 0.00 | 77 | 1016.9 |
| 20260503080621 | 1 | 180 | 3.2 | 4.8 | 0.00 | 0.13 | 0.00 | 77 | 1016.9 |
| 20260503072723 | 2 | 176 | 4.8 | 6.4 | 0.00 | 0.13 | 0.00 | 77 | 1016.9 |
| 20260503071724 | 2 | 180 | 3.2 | 4.8 | 0.00 | 0.13 | 0.00 | 77 | 1017.0 |
| 20260503070738 | 2 | 180 | 3.2 | 4.8 | 0.00 | 0.15 | 0.00 | 77 | 1017.0 |
| 20260503054838 | 2 | 180 | 3.2 | 3.2 | 0.00 | 0.25 | 0.00 | 75 | 1017.3 |
| 20260503053923 | 2 | 180 | 3.2 | 3.2 | 0.00 | 0.25 | 0.00 | 74 | 1017.3 |
| 20260503053021 | 3 | 180 | 3.2 | 3.2 | 0.00 | 0.25 | 0.00 | 73 | 1017.4 |
| 20260503052036 | 3 | 180 | 3.2 | 4.8 | 0.00 | 0.25 | 0.00 | 72 | 1017.3 |
| 20260503051122 | 3 | 184 | 3.2 | 4.8 | 0.00 | 0.25 | 0.00 | 72 | 1017.3 |
| 20260503050123 | 3 | 171 | 3.2 | 4.8 | 0.00 | 0.25 | 0.00 | 73 | 1017.3 |
| 20260503045221 | 3 | 202 | 3.2 | 4.8 | 0.00 | 0.25 | 0.00 | 73 | 1017.6 |
| 20260503044221 | 3 | 180 | 3.2 | 3.2 | 0.00 | 0.25 | 0.00 | 73 | 1017.5 |
| 20260503043222 | 3 | 183 | 3.2 | 4.8 | 0.00 | 0.25 | 0.00 | 73 | 1017.5 |
| 20260503042239 | 3 | 171 | 3.2 | 3.2 | 0.00 | 0.25 | 0.00 | 72 | 1017.6 |
| 20260503040321 | 3 | 180 | 1.6 | 3.2 | 0.00 | 0.25 | 0.00 | 72 | 1017.6 |
| 20260503033335 | 3 | 180 | 1.6 | 3.2 | 0.00 | 0.25 | 0.25 | 76 | 1017.7 |
| 20260503033251 | 3 | 180 | 3.2 | 3.2 | 0.00 | 0.25 | 0.25 | 75 | 1017.7 |
| 20260503031252 | 2 | 180 | 3.2 | 4.8 | 0.00 | 0.25 | 0.25 | 74 | 1017.7 |
| 20260503030336 | 2 | 180 | 3.2 | 3.2 | 0.00 | 0.25 | 0.25 | 75 | 1017.9 |
| 20260503024434 | 3 | 180 | 3.2 | 3.2 | 0.00 | 0.25 | 0.25 | 73 | 1017.9 |